Location: Kaarina
(60.4167°N, 22.4167°E)
Time: 08:55:45
(UTC+03:00)

Cosmos 1346 Rocket - Pass Details

Date: 24 August 2019
Orbit: 519 x 560 km, 81.2° (Epoch: 14 September)

Event Time Altitude Azimuth Distance (km) Brightness Sun altitude
Exits shadow 22:20:18 - 168° (SSE) 1,958 5.1 -9.1°
Reaches altitude 10° 22:20:49 10° 165° (SSE) 1,756 4.9 -9.1°
Maximum altitude 22:24:25 39° 97° (E) 804 3.3 -9.5°
Drops below altitude 10° 22:28:03 10° 28° (NNE) 1,778 5.6 -9.8°
Sets 22:30:18 0° 21° (NNE) 2,677 6.7 -10.0°
